Regional Weather Roundup
Issued by NWS Wakefield, VA

Home | Current Version | Previous Version | Text Only | Print | Product List | Glossary Off
Versions: 1 2 3 4 5 6 7 8 9 10 11 12 13 14 15 16 17 18 19 20 21 22 23 24 25 26 27 28 29 30 31 32 33 34 35 36 37 38 39 40 41 42 43 44 45 46 47 48 49 50

000
ASUS41 KAKQ 250515
RWRAKQ

REGIONAL WEATHER ROUNDUP
NATIONAL WEATHER SERVICE WAKEFIELD VA
100 AM EDT THU MAY 25 2017

Note: "fair" indicates few or no clouds below 12,000 feet with no
significant weather and/or obstructions to visibility. * = Denotes
station may not report precipitation (e.g., rain,snow,etc.),
thunder or fog.

VAZ042-051-052>054-056-250600-
NORTHERN VIRGINIA

CITY           SKY/WX    TMP DP  RH WIND       PRES   REMARKS
WASH NATIONAL  LGT RAIN  59  57  93 E12       29.66F
DULLES         LGT RAIN  57  54  89 E13G23    29.62F
FORT BELVOIR   LGT RAIN  57  55  94 E5        29.63F
QUANTICO       LGT RAIN  59  58  96 E12       29.63F
FREDERICKSBRG* DRIZZLE   59  59 100 E10       29.60F
STAFFORD*      DRIZZLE   57  57 100 E14       29.65F
WARRENTON      CLOUDY    59  55  87 E8G16     29.61F
CULPEPER*      DRIZZLE   59  58  97 E5        29.61F
MANASSAS*      CLOUDY    58  56  93 E9        29.62F
LEESBURG*      LGT RAIN  57  57 100 E7        29.64F
WINCHESTER     DRIZZLE   55  54  94 E3        29.62F
FRONT ROYAL*   CLOUDY    57  55  94 E7G16     29.60S
LURAY*         LGT RAIN  59  57  94 N10G17    29.58S
$$

VAZ048-049-060>072-079>083-250600-
CENTRAL AND SOUTH CENTRAL VIRGINIA

CITY           SKY/WX    TMP DP  RH WIND       PRES   REMARKS
RICHMOND       LGT RAIN  58  58 100 E13       29.58F
CHESTERFIELD*  NOT AVBL
PETERSBURG*    LGT RAIN  59  58  97 E6        29.58F
HANOVER        RAIN      58  57  97 E7        29.59F FOG
TAPPAHANNOCK*  LGT RAIN  59  59 100 E10G21    29.63F
QUINTON*       CLOUDY    58  58 100 E8G18     29.59F
CHARLOTTSVILLE LGT RAIN  60  58  92 E13       29.56F
GORDONSVILLE*  CLOUDY    58  58 100 E9        29.57F
ORANGE*        DRIZZLE   57  55  94 E6G16     29.58F
LOUISA*        LGT RAIN  61  61 100 E8G16     29.56F
BUMPASS*       CLOUDY    58  58 100 E9G17     29.59F
FARMVILLE*     RAIN      61  58  91 E7        29.53F
CREWE*         CLOUDY    59  55  87 E6        29.55F
FORT PICKETT*  CLOUDY    59  55  88 E8G18     29.56F
CHASE CITY*    CLOUDY    61  59  94 CALM      29.53F
CLARKSVILLE*   CLOUDY    63  63 100 E6        29.51F
SOUTH HILL*    CLOUDY    60  60 100 E3        29.60F
LAWRENCEVILLE* CLOUDY    60  59  97 E6        29.55F
EMPORIA*       DRIZZLE   61  61 100 E7        29.57F
$$

VAZ088>098-250600-
SOUTHEAST VIRGINIA

CITY           SKY/WX    TMP DP  RH WIND       PRES   REMARKS
NORFOLK        LGT RAIN  61  61 100 E9        29.60F
VIRGINIA BEACH CLOUDY    64  62  93 SE9       29.59F
NORFOLK NAVAL  LGT RAIN  63  60  90 E12       29.62
WEST POINT*    CLOUDY    59  58  97 E12       29.62F
SALUDA*        CLOUDY    59  59 100 E10G18    29.63F
NEWPORT NEWS   LGT RAIN  60  59  96 E12       29.61F
LANGLEY AFB    CLOUDY    61  61 100 E12       29.60F
FORT EUSTIS    CLOUDY    60  59  95 E9        29.57F
WILLIAMSBURG*  CLOUDY    61  61 100 E6        29.60F
HR EXEC AP*    CLOUDY    63  59  88 E7        29.58F
FRANKLIN*      CLOUDY    61  60  97 E7        29.59S
US460-WAKEFLD  LGT RAIN  60  60 100 E8        29.58F FOG
$$

VAZ020-022-025-037-045-250600-
WEST CENTRAL AND SOUTHWEST VIRGINIA

CITY           SKY/WX    TMP DP  RH WIND       PRES   REMARKS
STAUNTON*      LGT RAIN  57  56  95 NE8       29.57F
WAYNESBORO*    CLOUDY    57  57 100 E7        29.56F
HOT SPRINGS VA HVY RAIN  45  43  93 W10G16    29.59R VSB 1/4
LYNCHBURG      LGT RAIN  62  61  96 E12       29.51F
DANVILLE       CLOUDY    65  65 100 CALM      29.51S
SOUTH BOSTON*  CLOUDY    63  62  96 E6        29.51F
MARTINSVILLE   HVY RAIN  62  60  94 NW6       29.54R
ROANOKE        LGT RAIN  60  60 100 E3        29.53F
BLACKSBURG     RAIN      57  56  95 CALM      29.57F
DUBLIN*        RAIN      58  55  92 CALM      29.57R
MARION*        CLOUDY    57  54  90 CALM      29.57F
HILLSVILLE*    CLOUDY    56  52  86 CALM      29.55S
RICHLANDS*     FAIR      55  54  95 SW7       29.55R
WISE*            N/A     54  54 100 SW9       29.54F
ABINGDON*      CLOUDY    58  58 100 W5        29.56R
$$

MDZ021>025-VAZ099-100-250600-
SOUTHERN MARYLAND AND THE DELMARVA PENINSULA

CITY           SKY/WX    TMP DP  RH WIND       PRES   REMARKS
PATUXENT RIVER CLOUDY    57  57 100 E20G25    29.65F
BAY BRIDGE APT RAIN      57  55  94 E9G17     29.68F
LEONARDTOWN    CLOUDY    55  54  94 E10G17    29.67F
DOVER          LGT RAIN  57  57  99 E13G21    29.73S
GEORGETOWN     RAIN      56  54  93 E12       29.74S FOG
EASTON         LGT RAIN  57  55  92 E12       29.72F
CAMBRIDGE      CLOUDY    55  55 100 E14       29.67F
SALISBURY      LGT RAIN  55  55 100 E12       29.69F
OCEAN CITY     RAIN      56  55  97 E13       29.71F FOG
WALLOPS ISLAND LGT RAIN  57  57 100 E13       29.69F
ACCOMACK*      RAIN      58  13  17 E9        29.66F
$$

NCZ012>017-030>032-250600-
NORTH CENTRAL AND EASTERN NORTH CAROLINA

CITY           SKY/WX    TMP DP  RH WIND       PRES   REMARKS
ROANOKE RAPIDS RAIN      63  63 100 E5        29.55F
RALEIGH        CLOUDY    68  67  96 S12       29.51F
ELIZABETH CITY CLOUDY    70  69  97 SE8       29.61S
AHOSKIE*         N/A     64  64  99 SE5       29.57F
EDENTON*       CLOUDY    72  69  90 SE8       29.60F
CURRITUCK*     CLOUDY   N/A N/A N/A SE5       29.61F
KILL DEVIL HLS CLOUDY    67  67 100 CALM      29.62F FOG
MANTEO         RAIN      71  68  90 S13G20    29.64F
CAPE HATTERAS  NOT AVBL
TARBORO*       NOT AVBL
GOLDSBORO      CLOUDY    71  71 100 S9        29.53F
WASHINGTON     CLOUDY    71  68  90 SE7G16    29.57F
GREENVILLE     CLOUDY    70  70 100 S10       29.60F
NEW BERN       CLOUDY    72  70  93 S9        29.58F
WILMINGTON     MOCLDY    74  71  91 S18G24    29.55F
$$

VAZ048-250600-
ELSEWHERE

CITY           SKY/WX    TMP DP  RH WIND       PRES   REMARKS
HARRISBURG PA  CLOUDY    61  51  70 E20G25    29.68F
BALTIMORE      LGT RAIN  57  57 100 E13       29.68F
ANNAPOLIS      LGT RAIN  59  58  96 MISG      29.68F
ANDREWS AFB    DRIZZLE   56  55  95 E10G18    29.64F
PHILADELPHIA   CLOUDY    58  52  80 E12       29.76F
HENDERSON NC   CLOUDY    64  63  94 SE7       29.52F
GREENSBORO     LGT RAIN  61  59  93 W8        29.50S FOG
ROCKY MOUNT    CLOUDY    69  68  96 SE7       29.53F FOG
$$

VAZ100-250600-
MARINE

STATION/POSITION TIME  TEMP    WIND        PRES    WAVE   SWELL
                       AIR SEA DIR/SP/G            HT/PER HT/PER
                 (UTC) (F)     (DEG/KT/KT) (MB)    (FT/S) (FT/S)
CAPE MAY NJ      0448   55 60   80/  9/ 17 1006.5F
LEWES DE         0448   56 62  110/ 14/ 20 1006.7F
15NM E FENWICK I 0350   55 56   60/ 14/ 17 1007.3    5/ 8   3/ 8
WACHAPREAGUE VA  0448   58 64   70/ 15/ 17 1004.1F
THOMAS POINT MD  0500   58 64   90/ 17/ 19   N/A
GOOSES REEF MD   0450   58     130/ 17/ 21 1005.3F
COVE POINT MD    0448   57     130/ 15/ 21 1005.0F
SOLOMONS ISLAND  0448   59 66   90/ 20/ 25   N/A
BISHOPS HEAD MD  0448   58 64   80/ 18/ 22 1004.4F
PINEY POINT MD   0448          120/ 19/ 22   N/A
POTOMAC MD       0450   60     110/ 19/ 23 1003.1F
CAMBRIDGE MD     0442   58 67                N/A
LEWISETTA VA     0448   60 66  110/ 22/ 25 1003.5F
RAPPAHANNOCK LGT 0448           80/ 17/ 20 1003.9F
STINGRAY PT      0450   60     120/ 17/ 21 1003.4F
YORK RVR RNG VA  0448   61     110/ 20/ 24 1002.2F
YORKTOWN VA      0448   62 68  100/ 13/ 19 1002.4F
JAMESTOWN VA     0450   61     100/ 14/ 19   N/A
DOMINION TERM VA 0448   62      30/  2/  5 1002.3F
KIPTOPEKE VA     0448      65   90/ 12/ 14   N/A
CHES BAY BRIDGE  0448   62 64   90/ 14/ 15 1002.6F
CAPE HENRY VA    0448   63     110/ 11/ 16   N/A
WILLOUBY STN VA  0448   62     100/ 18/ 19 1002.0F
S CRANEY ISL VA  0448   62      90/ 11/ 13 1002.0F
CAPE HENRY BUOY  0442      62                N/A     4/ 7
1ST LANDING BUOY 0450   62                 1003.0F
CAPE CHARLES BUO 0451      61                N/A     4/ 5
64NM E OF VA BCH 0450   68 64  150/ 16/ 19 1004.6F   5/ 8   3/ 8
DUCK PIER NC     0448   66 65  140/ 16/ 19 1002.4F
44100 DUCK FRF   0435      62                N/A     4/ 8
44056 DUCK FRF   0430      65                N/A     4/ 4
OREGON INLET NC  0448          150/ 13/ 18   N/A
HATTERAS NC      0448   73 74  160/ 16/ 23 1003.8F
DIAMOND SHLS NC  0450   74 74  170/ 17/ 21 1004.5F   5/ 6
CAPE LOOKOUT NC  0400   73     160/ 23/ 25 1003.3F
$$



USA.gov is the U.S. government's official web portal to all federal, state and local government web resources and services.